24h Messdaten per 26.07.2021 um 13:50:02

Datum Zeit Luftdruck Temp Balkon Feuchte Balkon Temp Strasse Feuchte Strasse Wind km/h Wind Boe Wind aus (Grad) Regen l/15min Sonne h/Monat
26.07.21 13:50:02 1007 23.3 20
26.07.21 13:45:02 1007 24.9 20
26.07.21 13:40:01 1007 25.4 20
26.07.21 13:35:01 1007 24.6 20
26.07.21 13:30:01 1007 24.9 20
26.07.21 13:25:01 1007 23.7 20
26.07.21 13:20:01 1007 23.9 20
26.07.21 13:15:01 1007 23.9 20
26.07.21 13:10:01 1007 25.3 20
26.07.21 13:05:01 1007
26.07.21 13:00:01 1007 0.0
26.07.21 12:55:01 1007 0.0
26.07.21 12:50:01 1007 26.3 20 0.0
26.07.21 12:45:01 1007 27.2 20 0.0
26.07.21 12:40:01 1007 25.6 20 0.0
26.07.21 12:35:01 1007 0.0
26.07.21 12:30:01 1007 0.0
26.07.21 12:25:01 1007 0.0
26.07.21 12:20:00 1007 23.3 20 0.0
26.07.21 12:15:00 1007 23.7 20 0.0
26.07.21 12:10:00 1007 23.6 20 0.0
26.07.21 12:05:01 1007 22.9 20 0.0
26.07.21 12:00:01 1007 23.2 20 4.3 3.2 135 0.0
26.07.21 11:55:01 1007 22.9 20 4.3 3.2 135 0.0
26.07.21 11:50:01 1007 22.2 20 4.3 2.9 112.5 0.0
26.07.21 11:45:01 1007 22.5 20 3.6 1.8 112.5 0.0
26.07.21 11:40:01 1007 22.2 20 3.6 1.8 112.5
26.07.21 11:35:02 1007 22.1 20 4.0 4.3 135 0.0
26.07.21 11:30:01 1007 24.0 20 2.2 4.3 112.5 0.0
26.07.21 11:25:01 1007 23.9 20 2.2 4.3 112.5 0.0
26.07.21 11:20:01 1007 22.2 20 2.2 3.6 45 0.0
26.07.21 11:15:01 1007 22.1 20 2.5 3.2 90 0.0
26.07.21 11:10:01 1007 22.1 20 2.5 3.2 90 0.0
26.07.21 11:05:01 1007 22.8 20 2.2 0.0 292.5 0.0
26.07.21 11:00:01 1007 22.5 20 2.9 3.6 67.5 0.0
26.07.21 10:55:01 1007 24.8 20 2.9 3.6 67.5 0.0
26.07.21 10:50:01 1007 23.8 20 2.9 3.6 67.5 0.0
26.07.21 10:45:01 1007 25.4 20 3.6 1.4 67.5 0.0
26.07.21 10:40:01 1007 23.8 20 3.6 1.4 67.5 0.0
26.07.21 10:35:01 1007 25.2 20 3.6 5.8 45 0.0
26.07.21 10:30:01 1007 23.5 20 4.3 3.2 135 0.0
26.07.21 10:25:01 1007 27.7 20 4.3 3.2 135 0.0
26.07.21 10:20:01 1007 22.6 20 4.7 4.3 45 0.0
26.07.21 10:15:01 1007 22.5 20 4.0 5.4 135 0.0
26.07.21 10:10:01 1007 23.6 20 4.0 5.4 135 0.0
26.07.21 10:05:01 1007 23.3 20 3.6 6.1 337.5 0.0
26.07.21 10:00:01 1007 23.9 20 4.3 4.3 112.5 0.0
26.07.21 09:55:01 1007 23.1 20 4.3 4.3 112.5
26.07.21 09:50:01 1007 23.0 20 3.6 4.7 22.5 0.0
26.07.21 09:45:01 1007 22.2 20 3.6 4.3 112.5 0.0
26.07.21 09:40:01 1007 23.8 20 3.6 4.3 112.5 0.0
26.07.21 09:35:01 1007 22.8 20 3.2 2.9 135 0.0
26.07.21 09:30:01 1007 21.1 20 4.7 5.4 67.5 0.0
26.07.21 09:25:01 1007 23.3 20 4.7 5.4 67.5 0.0
26.07.21 09:20:01 1007 20.5 20 4.7 6.1 90 0.0
26.07.21 09:15:01 1007 21.7 20 4.3 5.0 247.5 0.0
26.07.21 09:10:01 1007 24.1 20 4.3 5.0 247.5 0.0
26.07.21 09:05:01 1007 23.2 20 3.6 1.8 247.5 0.0
26.07.21 09:00:01 24.4 20 3.6 2.5 90 0.0
26.07.21 08:55:01 1007 21.5 21 3.6 2.5 90
26.07.21 08:50:01 1007 22.6 24 4.7 8.6 135 0.0
26.07.21 08:45:01 1007 21.9 22 3.2 5.8 67.5 0.0
26.07.21 08:40:01 1007 23.4 21 3.2 5.8 67.5 0.0
26.07.21 08:35:01 1007 23.1 22 3.2 7.2 67.5 0.0
26.07.21 08:30:01 1007 22.0 34 5.0 7.6 157.5 0.0
26.07.21 08:25:01 1007 18.3 32 5.0 7.6 157.5
26.07.21 08:20:01 1007 18.5 32 5.0 7.6 157.5 0.0
26.07.21 08:15:01 1007 18.8 33 4.7 5.8 112.5 0.0
26.07.21 08:10:01 1007 19.0 37 4.7 5.8 112.5
26.07.21 08:05:02 1007 18.0 38 3.6 6.5 112.5 0.0
26.07.21 08:00:02 1007 17.1 41 4.3 10.1 157.5 0.0
26.07.21 07:55:02 1006 16.3 40 4.3 10.1 157.5 0.0
26.07.21 07:50:01 1006 16.1 40 4.0 4.7 112.5 0.0
26.07.21 07:45:01 1006 16.1 39 3.2 5.8 270 0.0
26.07.21 07:40:01 1006 16.1 39 3.2 5.8 270
26.07.21 07:35:02 1006 16.0 40 4.3 3.2 135 0.0
26.07.21 07:30:02 1006 16.1 41 2.5 5.4 112.5 0.0
26.07.21 07:25:02 1006 16.0 42 2.5 5.4 112.5 0.0
26.07.21 07:20:01 1006 15.8 43 2.2 6.8 112.5 0.0
26.07.21 07:15:01 1006 15.6 43 1.4 2.2 157.5 0.0
26.07.21 07:10:01 1006 15.7 44 1.4 2.2 157.5
26.07.21 07:05:02 1006 15.6 45 1.1 5.4 135 0.0
26.07.21 07:00:02 1006 15.6 45 0.7 2.2 90 0.0
26.07.21 06:55:01 1006 15.6 46 0.7 2.2 90
26.07.21 06:50:02 1006 15.5 47 0.4 0.0 270 0.0
26.07.21 06:45:02 1006 15.5 48 0.0 0.0 157.5 0.0
26.07.21 06:40:02 1006 15.5 48 0.0 0.0 157.5 0.0
26.07.21 06:35:02 1006 15.3 50 0.0 0.0 67.5 0.0
26.07.21 06:30:02 1006 15.2 50 0.0 0.0 270 0.0
26.07.21 06:25:02 1006 15.2 51 0.0 0.0 270 0.0
26.07.21 06:20:01 1006 15.0 51 0.0 0.0 112.5 0.0
26.07.21 06:15:01 1006 15.0 51 0.0 0.0 270 0.0
26.07.21 06:10:01 1006 14.9 51 0.0 0.0 270 0.0
26.07.21 06:05:01 1006 14.9 52 0.0 0.0 22.5 0.0
26.07.21 06:00:01 1006 14.8 51 0.0 0.0 180 0.0
26.07.21 05:55:01 1006 14.9 51 0.0 0.0 180 0.0
26.07.21 05:50:01 1006 14.9 51 0.0 0.0 135 0.0
26.07.21 05:45:01 1006 15.0 51 0.0 0.0 135 0.0
26.07.21 05:40:01 1006 15.0 51 0.0 0.0 135 0.0
26.07.21 05:35:01 1006 15.0 51 0.0 0.0 157.5 0.0
26.07.21 05:30:01 1006 15.0 52 0.0 0.0 112.5 0.0
26.07.21 05:25:01 1006 15.0 51 0.0 0.0 112.5
26.07.21 05:20:01 1006 14.9 51 0.0 0.0 112.5 0.0
26.07.21 05:15:01 1006 14.7 50 0.0 0.0 247.5 0.0
26.07.21 05:10:01 1006 14.5 50 0.0 0.0 247.5 0.0
26.07.21 05:05:01 1006 14.5 50 0.0 0.0 202.5 0.0
26.07.21 05:00:01 1006 14.5 50 0.0 0.0 22.5 0.0
26.07.21 04:55:01 1006 14.4 49 0.0 0.0 22.5
26.07.21 04:50:02 1006 14.4 49 0.0 0.0 270 0.0
26.07.21 04:45:01 1006 14.5 49 0.0 0.0 135 0.0
26.07.21 04:40:01 1006 14.6 48 0.0 0.0 135 0.0
26.07.21 04:35:01 1006 14.5 48 0.0 0.0 45 0.0
26.07.21 04:30:01 1006 14.5 48 0.0 0.0 225 0.0
26.07.21 04:25:01 1005 14.6 49 0.0 0.0 225 0.0
26.07.21 04:20:01 1005 14.6 48 0.0 0.0 247.5 0.0
26.07.21 04:15:01 1005 14.5 47 0.0 0.0 247.5 0.0
26.07.21 04:10:01 1005 14.6 47 0.0 0.0 247.5 0.0
26.07.21 04:05:01 1005 14.8 47 0.0 0.0 135 0.0
26.07.21 04:00:01 1005 14.8 46 0.0 0.0 315 0.0
26.07.21 03:54:02 1005 15.1 47 0.0 0.0 315 0.0
26.07.21 03:49:02 1005 15.2 47 0.0 0.0 292.5 0.0
26.07.21 03:44:02 1005 15.3 48 0.0 0.0 247.5 0.0
26.07.21 03:39:01 1005 15.3 47 0.0 0.0 247.5 0.0
26.07.21 03:34:01 1005 15.4 48 0.0 0.0 67.5 0.0
26.07.21 03:29:01 1005 15.3 48 0.0 0.0 67.5 0.0
26.07.21 03:24:02 1005 15.2 48 0.0 0.0 67.5 0.0
26.07.21 03:19:02 1006 15.3 48 0.0 0.0 202.5 0.0
26.07.21 03:14:02 1006 14.9 47 0.0 0.0 67.5 0.0
26.07.21 03:09:02 1006 14.8 45 0.0 0.0 67.5
26.07.21 03:09:01 0.0 0.0 67.5 0.0
26.07.21 03:04:01 1006 14.9 43 0.0 0.0 22.5 0.0
26.07.21 02:54:00 1006 15.1 42 0.0 0.0 315 0.0
26.07.21 02:49:00 1006 15.2 40 0.0 0.0 135 0.0
26.07.21 02:44:00 1006 15.4 41 0.0 0.0 247.5 0.0
26.07.21 02:39:00 1006 15.6 39 0.0 0.0 247.5
26.07.21 02:38:59 1006 16.0 39 0.0 0.0 247.5 0.0
26.07.21 02:29:59 1006 16.1 38 0.0 0.0 135 0.0
26.07.21 02:24:01 1006 16.2 37 0.0 0.0 135 0.0
26.07.21 02:19:01 1006 16.6 36 0.0 0.0 292.5 0.0
26.07.21 02:14:00 1006 16.8 35 0.0 0.0 180 0.0
26.07.21 02:09:00 1006 17.1 35 0.0 0.0 180 0.0
26.07.21 02:04:00 1006 16.9 36 0.0 0.0 270 0.0
26.07.21 01:59:00 1006 0.0 0.0 270 0.0
26.07.21 01:54:01 1006 16.6 37 0.0 0.0 270 0.0
26.07.21 01:49:00 1006 16.6 37 0.0 0.0 247.5 0.0
26.07.21 01:44:00 1006 16.5 40 0.0 0.0 270 0.0
26.07.21 01:39:00 1006 16.3 42 0.0 0.0 270 0.0
26.07.21 01:34:00 1006 16.0 46 0.0 0.0 270 0.0
26.07.21 01:29:00 15.2 46 0.4 0.0 270 0.0
26.07.21 01:24:00 1006 14.8 45 0.4 0.0 270 0.0
26.07.21 01:19:00 1006 14.8 44 0.4 0.0 315 0.0
26.07.21 01:14:00 1006 14.7 42 0.0 0.0 337.5 0.0
26.07.21 01:09:00 1006 14.7 41 0.0 0.0 337.5 0.0
26.07.21 01:04:00 1006 15.0 40 0.0 0.0 112.5 0.0
26.07.21 00:59:00 1006 15.8 40 0.0 0.0 247.5 0.0
26.07.21 00:54:01 1006 16.2 42 0.0 0.0 247.5 0.0
26.07.21 00:49:01 1006 15.9 44 0.0 0.0 315 0.0
26.07.21 00:44:00 1006 15.5 47 0.0 0.0 180 0.0
26.07.21 00:39:00 1006 15.5 48 0.0 0.0 180 0.0
26.07.21 00:34:00 1006 15.1 47 0.0 0.0 315 0.0
26.07.21 00:29:00 1006 15.1 48 0.0 0.0 247.5 0.0
26.07.21 00:24:00 1006 14.8 45 0.0 0.0 247.5 0.0
26.07.21 00:19:00 1006 15.2 46 0.0 0.0 157.5 0.0
26.07.21 00:14:00 1006 15.4 45 0.4 1.4 202.5 0.0
26.07.21 00:09:00 1006 15.5 43 0.4 1.4 202.5 0.0
26.07.21 00:04:00 1006 15.6 44 0.4 0.0 202.5 0.0
25.07.21 23:59:00 1006 15.7 45 0.4 0.0 67.5 0.0
25.07.21 23:54:00 1006 15.6 44 0.4 0.0 67.5 0.0
25.07.21 23:49:00 1006 15.6 44 0.4 2.2 135 0.0
25.07.21 23:44:00 1006 15.7 44 0.4 0.0 112.5 0.0
25.07.21 23:39:01 1006 15.7 45 0.4 0.0 112.5 0.0
25.07.21 23:34:01 1006 15.7 46 0.4 2.5 135 0.0
25.07.21 23:29:01 1006 15.7 47 0.0 0.0 270 0.0
25.07.21 23:24:01 1006 15.4 47 0.0 0.0 270 0.0
25.07.21 23:19:01 1006 14.9 44 0.0 0.0 247.5 0.0
25.07.21 23:14:01 1006 14.7 44 0.0 0.0 180 0.0
25.07.21 23:09:01 1006 14.7 43 0.0 0.0 180 0.0
25.07.21 23:04:01 1006 15.0 42 0.0 0.0 45 0.0
25.07.21 22:59:01 1006 15.1 41 0.4 2.2 135 0.0
25.07.21 22:54:01 1006 15.2 41 0.4 2.2 135 0.0
25.07.21 22:49:00 1006 15.0 39 0.4 0.0 112.5 0.0
25.07.21 22:44:00 1006 0.0 1.8 157.5 0.0
25.07.21 22:39:01 1006 15.5 38 0.0 1.8 157.5 0.0
25.07.21 22:34:00 1006 15.7 37 0.0 0.0 135 0.0
25.07.21 22:29:00 1006 16.4 37 0.0 0.0 112.5 0.0
25.07.21 22:24:01 1006 16.4 37 0.0 0.0 112.5 0.0
25.07.21 22:19:01 1006 16.6 37 0.0 0.0 67.5 0.0
25.07.21 22:14:01 1006 16.6 36 0.0 0.0 112.5 0.0
25.07.21 22:09:00 1005 16.5 36 0.0 0.0 112.5 0.0
25.07.21 22:04:00 1005 16.3 36 0.0 0.0 112.5 0.0
25.07.21 21:59:00 1005 16.3 34 0.0 0.0 247.5 0.0
25.07.21 21:54:01 1005 16.3 33 0.0 0.0 247.5 0.0
25.07.21 21:49:01 1005 16.4 33 0.0 0.0 135 0.0
25.07.21 21:44:00 1005 0.0 0.0 270 0.0
25.07.21 21:39:00 1005 17.2 31 0.0 0.0 270 0.0
25.07.21 21:34:00 1005 17.5 31 0.0 0.0 135 0.0
25.07.21 21:29:00 1005 17.9 30 0.0 0.0 202.5 0.0
25.07.21 21:24:01 1005 18.1 30 0.0 0.0 202.5 0.0
25.07.21 21:19:01 1005 18.2 30 0.0 0.0 112.5 0.0
25.07.21 21:14:01 1005 18.3 30 0.0 0.0 45 0.0
25.07.21 21:09:01 1005 18.5 28 0.0 0.0 45 0.0
25.07.21 21:04:01 1005 18.8 27 0.0 0.0 22.5 0.0
25.07.21 20:59:00 1005 19.4 26 0.0 0.0 247.5 0.0
25.07.21 20:54:00 1005 19.5 26 0.0 0.0 247.5 0.0
25.07.21 20:49:00 1005 0.0 0.0 112.5 0.0
25.07.21 20:44:00 1005 19.9 25 0.0 0.0 45 0.0
25.07.21 20:39:01 1005 20.4 23 0.0 0.0 45 0.0
25.07.21 20:34:01 1005 20.8 21 0.0 0.0 67.5 0.0
25.07.21 20:29:01 1005 20.9 21 0.0 0.0 67.5 0.0
25.07.21 20:24:00 1005 21.3 20 0.0 0.0 67.5 0.0
25.07.21 20:19:00 1005 21.5 20 0.0 0.0 0 0.0
25.07.21 20:14:00 1005 21.7 20 0.0
25.07.21 20:09:00 1005 21.7 20 0.0
25.07.21 20:04:00 1005 21.6 20 0.0
25.07.21 19:59:00 1005 21.6 22 0.0
25.07.21 19:54:01 1005 21.6 23 0.0
25.07.21 19:49:01 1005 21.4 23 0.0
25.07.21 19:44:01 1005 21.5 22 0.0
25.07.21 19:39:00 1005 21.5 21 0.0
25.07.21 19:34:00 1005 22.0 20 0.0
25.07.21 19:29:00 1005 22.1 20 0.0
25.07.21 19:24:01 1005 22.3 20 0.0
25.07.21 19:19:01 1005 23.0 20 0.0
25.07.21 19:14:01 1005 23.1 20 0.0
25.07.21 19:09:01 1005 0.0
25.07.21 19:04:01 1005 0.0
25.07.21 18:59:01 1005 0.0
25.07.21 18:54:01 1005 0.0
25.07.21 18:49:01 1005 0.0
25.07.21 18:44:01 1005 0.0
25.07.21 18:39:01 1005 26.7 20 0.0
25.07.21 18:34:01 1005 26.3 20 0.0 0.0 112.5 0.0
25.07.21 18:29:01 1004 28.5 20 0.0 0.0 112.5 0.0
25.07.21 18:24:01 1004 29.8 20 0.0 0.0 112.5 0.0
25.07.21 18:19:01 1004 31.4 20 0.0 0.0 112.5 0.0
25.07.21 18:14:01 1004 31.2 20 0.4 2.9 135 0.0
25.07.21 18:09:01 1004 29.7 20 0.4 2.9 135 0.0
25.07.21 18:04:00 1004 27.8 20 0.4 0.0 135 0.0
25.07.21 17:59:00 1004 28.4 20 0.7 0.0 112.5 0.0
25.07.21 17:54:01 1004 27.9 20 0.7 0.0 112.5 0.0
25.07.21 17:49:01 1005 29.6 20 0.7 0.0 135 0.0
25.07.21 17:44:01 1004 29.8 20 1.1 1.8 112.5 0.0
25.07.21 17:39:01 1004 24.9 20 1.1 1.8 112.5 0.0
25.07.21 17:34:01 1004 23.7 20 0.0 1.8 90 0.0
25.07.21 17:29:00 1004 23.8 20 0.0 0.0 270 0.0
25.07.21 17:24:01 1004 23.8 20 0.0 0.0 270 0.0
25.07.21 17:19:01 1004 23.7 20 0.0 0.0 315 0.0
25.07.21 17:14:01 1004 24.8 20 0.7 0.0 135 0.0
25.07.21 17:09:01 1004 25.1 20 0.7 0.0 135 0.0
25.07.21 17:04:00 1004 26.4 20 0.7 0.0 135 0.0
25.07.21 16:59:00 1004 26.0 20 1.4 2.2 112.5 0.0
25.07.21 16:54:01 1004 1.4 2.2 112.5 0.0
25.07.21 16:49:01 1005 0.0
25.07.21 16:44:01 1004 0.0
25.07.21 16:39:00 1004 27.2 20 0.0
25.07.21 16:34:00 1005 27.9 20 0.0
25.07.21 16:29:00 1004 29.8 20 0.0
25.07.21 16:24:00 1004 29.9 20 0.0
25.07.21 16:19:00 1005 27.9 20 0.0
25.07.21 16:14:00 1005 26.8 20 0.0
25.07.21 16:09:01 1005 21.7 31 0.0
25.07.21 16:04:01 1005 20.8 32 0.0
25.07.21 15:59:01 1005 20.1 29 0.0
25.07.21 15:54:01 1005 22.3 20 0.0
25.07.21 15:49:01 1005 24.4 20 0.0
25.07.21 15:44:01 1005 24.8 20 0.0
25.07.21 15:39:01 1005 25.0 20 0.0
25.07.21 15:34:01 1004 25.2 20 0.0
25.07.21 15:29:01 1005 26.8 20 0.0
25.07.21 15:24:02 1005 26.8 20 0.0
25.07.21 15:19:02 1005 26.6 20 0.0
25.07.21 15:14:01 1005 27.5 20 0.0
25.07.21 15:09:01 1005 28.6 20 0.0
25.07.21 15:04:01 1005 27.0 20 2.1
25.07.21 14:59:01 1005 26.8 20 0.0
25.07.21 14:54:01 1005 25.8 20 0.0
25.07.21 14:49:01 1005 26.5 20 0.0
25.07.21 14:44:01 1005 27.6 20 0.0
25.07.21 14:39:00 1005 33.3 20 0.0
25.07.21 14:34:00 1005 33.4 20 0.0
25.07.21 14:29:00 1005 32.0 20 0.0
25.07.21 14:24:01 1005 28.0 20 0.0
25.07.21 14:19:01 1005 25.6 20 0.0
25.07.21 14:14:01 1005 26.4 20 0.0
25.07.21 14:09:02 1005 27.3 20 0.0
25.07.21 14:04:01 1005 26.9 20 0.0
25.07.21 13:59:01 1005 27.7 20 0.0
25.07.21 13:54:01 1005 30.1 20 0.0
Index
© 2002-2021 Thomas Dreßler
Alle Rechte vorbehalten
letzte Scriptänderung 21.03.2021